Weather History for Wendover, UT

Change the Weather History Date:

Sunday, March 2, 2014

  Actual Average Record
Temperature  
Mean Temperature 42 °F -  
Max Temperature 53 °F 48 °F 62 °F (1934)
Min Temperature 30 °F 32 °F 15 °F (1971)
Degree Days  
Heating Degree Days 24    
Moisture  
Dew Point 32 °F    
Average Humidity 62    
Maximum Humidity 86    
Minimum Humidity 44    
Precipitation  
Precipitation 0.00 in - - ()
Sea Level Pressure  
Sea Level Pressure 29.96 in    
Wind  
Wind Speed 5 mph (SW)    
Max Wind Speed 16 mph    
Max Gust Speed -    
Visibility 10 miles    
Events      
Averages and records for this station are not official NWS values.
T = Trace of Precipitation, MM = Missing Value Source: NWS Daily Summary

Daily Weather History Graph

Daily Weather History Graph

Search for Another Location

Airport:

Trip Planner

Search our weather history database for the weather conditions in past years. The results will help you decide how hot, cold, wet, or windy it might be!

Date:

Astronomy

Mar. 02, 2014 Rise Set
Actual Time 7:08 AM MST 6:28 PM MST
Civil Twilight 6:40 AM MST 6:56 PM MST
Nautical Twilight 6:09 AM MST 7:27 PM MST
Astronomical Twilight 5:37 AM MST 7:59 PM MST
Moon 7:41 AM MST (3/2) 8:30 PM MST (3/2)
Length of Visible Light 12h 15m
Length of Day
11h 20m
Waxing Crescent, 3% of the Moon is Illuminated
Mar 2
Waxing Crescent
Mar 8
First Quarter
Mar 16
Full
Mar 23
Last Quarter
Mar 30
New

Hourly Weather History & Observations

Time (MST) Temp. Windchill Dew Point Humidity Pressure Visibility Wind Dir Wind Speed Gust Speed Precip Events Conditions
12:15 AM 39.2 °F 35.0 °F 30.2 °F 70% 29.84 in 10.0 mi SSE 5.8 mph - N/A   Mostly Cloudy
12:35 AM 37.4 °F 32.8 °F 30.2 °F 75% 29.85 in 10.0 mi West 5.8 mph - N/A   Mostly Cloudy
12:55 AM 37.4 °F 33.8 °F 30.2 °F 75% 29.86 in 10.0 mi West 4.6 mph - N/A   Overcast
1:15 AM 39.2 °F 37.0 °F 30.2 °F 70% 29.86 in 10.0 mi WNW 3.5 mph - N/A   Overcast
1:35 AM 37.4 °F 33.8 °F 30.2 °F 75% 29.87 in 10.0 mi WSW 4.6 mph - N/A   Mostly Cloudy
1:55 AM 39.2 °F - 30.2 °F 70% 29.87 in 10.0 mi Calm Calm - N/A   Mostly Cloudy
2:15 AM 37.4 °F 33.8 °F 30.2 °F 75% 29.87 in 10.0 mi North 4.6 mph - N/A   Mostly Cloudy
2:35 AM 37.4 °F 34.9 °F 30.2 °F 75% 29.86 in 10.0 mi North 3.5 mph - N/A   Partly Cloudy
2:55 AM 35.6 °F - 28.4 °F 75% 29.87 in 10.0 mi Calm Calm - N/A   Clear
3:15 AM 35.6 °F - 28.4 °F 75% 29.87 in 10.0 mi Calm Calm - N/A   Clear
3:35 AM 35.6 °F 32.8 °F 28.4 °F 75% 29.87 in 10.0 mi SW 3.5 mph - N/A   Clear
3:55 AM 33.8 °F 30.8 °F 28.4 °F 81% 29.87 in 10.0 mi SSW 3.5 mph - N/A   Clear
4:15 AM 35.6 °F - 28.4 °F 75% 29.89 in 10.0 mi Calm Calm - N/A   Clear
4:35 AM 33.8 °F 29.6 °F 26.6 °F 75% 29.89 in 10.0 mi South 4.6 mph - N/A   Clear
4:55 AM 32.0 °F 26.4 °F 26.6 °F 80% 29.90 in 10.0 mi NNW 5.8 mph - N/A   Clear
5:15 AM 35.6 °F 31.7 °F 28.4 °F 75% 29.92 in 10.0 mi NNW 4.6 mph - N/A   Clear
5:35 AM 35.6 °F - 28.4 °F 75% 29.92 in 10.0 mi Calm Calm - N/A   Clear
5:55 AM 35.6 °F - 28.4 °F 75% 29.92 in 10.0 mi Calm Calm - N/A   Clear
6:15 AM 35.6 °F - 28.4 °F 75% 29.94 in 10.0 mi Calm Calm - N/A   Clear
6:35 AM 33.8 °F 30.8 °F 28.4 °F 81% 29.95 in 10.0 mi NNW 3.5 mph - N/A   Clear
6:55 AM 33.8 °F - 28.4 °F 81% 29.95 in 10.0 mi Calm Calm - N/A   Clear
7:15 AM 30.2 °F 26.7 °F 24.8 °F 80% 29.96 in 10.0 mi WSW 3.5 mph - N/A   Clear
7:35 AM 30.2 °F 25.4 °F 26.6 °F 86% 29.97 in 10.0 mi West 4.6 mph - N/A   Partly Cloudy
7:55 AM 33.8 °F - 28.4 °F 81% 29.97 in 10.0 mi Calm Calm - N/A   Mostly Cloudy
8:15 AM 37.4 °F 33.8 °F 32.0 °F 81% 29.98 in 10.0 mi West 4.6 mph - N/A   Scattered Clouds
8:35 AM 39.2 °F - 33.8 °F 81% 29.99 in 10.0 mi Calm Calm - N/A   Clear
8:55 AM 42.8 °F - 30.2 °F 61% 29.99 in 10.0 mi Calm Calm - N/A   Partly Cloudy
9:15 AM 42.8 °F - 32.0 °F 66% 30.00 in 10.0 mi Calm Calm - N/A   Clear
9:35 AM 42.8 °F - 30.2 °F 61% 30.00 in 10.0 mi Calm Calm - N/A   Partly Cloudy
9:55 AM 44.6 °F - 30.2 °F 57% 30.00 in 10.0 mi Calm Calm - N/A   Scattered Clouds
10:15 AM 44.6 °F - 30.2 °F 57% 30.01 in 10.0 mi Calm Calm - N/A   Mostly Cloudy
10:35 AM 46.4 °F - 33.8 °F 62% 30.01 in 10.0 mi Calm Calm - N/A   Partly Cloudy
10:55 AM 48.2 °F - 33.8 °F 58% 30.00 in 10.0 mi ESE 4.6 mph - N/A   Partly Cloudy
11:15 AM 48.2 °F - 35.6 °F 62% 30.00 in 10.0 mi ESE 6.9 mph - N/A   Clear
11:35 AM 48.2 °F - 33.8 °F 58% 30.01 in 10.0 mi ENE 3.5 mph - N/A   Clear
11:55 AM 46.4 °F 42.9 °F 35.6 °F 66% 30.01 in 10.0 mi ESE 6.9 mph - N/A   Mostly Cloudy
12:15 PM 46.4 °F 43.5 °F 35.6 °F 66% 30.01 in 10.0 mi East 5.8 mph - N/A   Partly Cloudy
12:35 PM 48.2 °F - 37.4 °F 66% 29.99 in 10.0 mi ENE 6.9 mph - N/A   Clear
12:55 PM 51.8 °F - 37.4 °F 58% 29.99 in 10.0 mi East 6.9 mph - N/A   Partly Cloudy
1:15 PM 51.8 °F - 35.6 °F 54% 29.98 in 10.0 mi NE 8.1 mph - N/A   Partly Cloudy
1:35 PM 51.8 °F - 35.6 °F 54% 29.97 in 10.0 mi ENE 6.9 mph - N/A   Partly Cloudy
1:55 PM 53.6 °F - 35.6 °F 51% 29.96 in 10.0 mi NE 6.9 mph - N/A   Scattered Clouds
2:15 PM 53.6 °F - 33.8 °F 47% 29.96 in 10.0 mi SSE 12.7 mph - N/A   Mostly Cloudy
2:35 PM 53.6 °F - 33.8 °F 47% 29.95 in 10.0 mi SSE 15.0 mph - N/A   Mostly Cloudy
2:55 PM 53.6 °F - 33.8 °F 47% 29.95 in 10.0 mi SSE 13.8 mph - N/A   Partly Cloudy
3:15 PM 53.6 °F - 33.8 °F 47% 29.96 in 10.0 mi SSE 12.7 mph - N/A   Partly Cloudy
3:35 PM 53.6 °F - 32.0 °F 44% 29.95 in 10.0 mi SSE 15.0 mph - N/A   Scattered Clouds
3:55 PM 53.6 °F - 33.8 °F 47% 29.95 in 10.0 mi SE 16.1 mph - N/A   Scattered Clouds
4:15 PM 53.6 °F - 33.8 °F 47% 29.95 in 10.0 mi SE 13.8 mph - N/A   Mostly Cloudy
4:35 PM 53.6 °F - 33.8 °F 47% 29.95 in 10.0 mi SE 11.5 mph - N/A   Mostly Cloudy
4:55 PM 53.6 °F - 35.6 °F 51% 29.95 in 10.0 mi SSE 12.7 mph - N/A   Partly Cloudy
5:15 PM 53.6 °F - 35.6 °F 51% 29.95 in 10.0 mi SSE 10.4 mph - N/A   Clear
5:35 PM 53.6 °F - 35.6 °F 51% 29.96 in 10.0 mi South 8.1 mph - N/A   Clear
5:55 PM 53.6 °F - 33.8 °F 47% 29.97 in 10.0 mi SE 3.5 mph - N/A   Clear
6:15 PM 51.8 °F - 30.2 °F 44% 29.97 in 10.0 mi WSW 9.2 mph - N/A   Clear
6:35 PM 51.8 °F - 32.0 °F 47% 29.98 in 10.0 mi West 6.9 mph - N/A   Clear
6:55 PM 50.0 °F - 32.0 °F 50% 29.98 in 10.0 mi WSW 5.8 mph - N/A   Partly Cloudy
7:15 PM 48.2 °F - 32.0 °F 54% 29.99 in 10.0 mi West 6.9 mph - N/A   Partly Cloudy
7:35 PM 50.0 °F - 30.2 °F 47% 30.00 in 10.0 mi West 5.8 mph - N/A   Scattered Clouds
7:55 PM 48.2 °F - 32.0 °F 54% 30.00 in 10.0 mi West 6.9 mph - N/A   Mostly Cloudy
8:15 PM 48.2 °F - 32.0 °F 54% 30.00 in 10.0 mi West 16.1 mph - N/A   Partly Cloudy
8:35 PM 50.0 °F - 30.2 °F 47% 30.01 in 10.0 mi WSW 16.1 mph - N/A   Scattered Clouds
8:55 PM 48.2 °F - 30.2 °F 50% 30.01 in 10.0 mi WSW 11.5 mph - N/A   Scattered Clouds
9:15 PM 48.2 °F - 30.2 °F 50% 30.02 in 10.0 mi West 9.2 mph - N/A   Mostly Cloudy
9:35 PM 48.2 °F - 30.2 °F 50% 30.02 in 10.0 mi West 12.7 mph - N/A   Overcast
9:55 PM 48.2 °F - 30.2 °F 50% 30.03 in 10.0 mi WSW 15.0 mph - N/A   Overcast
10:15 PM 48.2 °F - 32.0 °F 54% 30.04 in 10.0 mi WSW 12.7 mph - N/A   Mostly Cloudy
10:35 PM 46.4 °F 45.2 °F 33.8 °F 62% 30.04 in 10.0 mi WSW 3.5 mph - N/A   Mostly Cloudy
10:55 PM 46.4 °F 44.3 °F 33.8 °F 62% 30.04 in 10.0 mi SSW 4.6 mph - N/A   Overcast
11:15 PM 46.4 °F 41.1 °F 33.8 °F 62% 30.03 in 10.0 mi WSW 11.5 mph - N/A   Mostly Cloudy
11:35 PM 46.4 °F 40.4 °F 32.0 °F 57% 30.03 in 10.0 mi WSW 13.8 mph - N/A   Clear
11:55 PM 44.6 °F 40.7 °F 32.0 °F 61% 30.04 in 10.0 mi WNW 6.9 mph - N/A   Scattered Clouds